If you wish to contribute or participate in the discussions about articles you are invited to join SKYbrary as a registered user

 Actions

Viracopos-Campinas International Airport

From SKYbrary Wiki

SBKP
Airport
ICAO: SBKP – IATA: VCP
Summary
Name Viracopos-Campinas International Airport
Region South America and Caribbean
Territory Brazil BR.gif
Location Viracopos, Sao Paulo
Serving Campinas
Elevation 661.416 m
2,170 ft661.416 m
Coordinates 23° 0' 24.98" S, 47° 8' 3.98" W
Runways
Designator Length Width Surface ROPS
15/33 3240 m10,629.921 ft
45 m147.638 ft
ASP yes/yes


METAR
Observation SBKP 120800Z 13020KT 9999 FEW020 19/15 Q1016
Station Campinas Aeroporto
Date/Time 12 November 2019 08:00:00
Wind direction 130°
Wind speed 20 kts
Lowest cloud amount few clouds
Temperature 19°C
Dew point 15°C
Humidity 77%
QNH 1016 hPa
Weather condition n/a

Viracopos/Campinas International Airport (sometimes referred to as São Paulo/Campinas) is an international airport serving Campinas, São Paulo State, Brazil

Climatology

Humid subtropical climate (Köppen climate classification Cwa)

Maps

Terrain

Loading map...

Airport Layout

Loading map...


Accidents & Serious Incidents at or in vicinity of SBKP

None on SKYbrary